Lake Charles, LA

2:23 AM CDT on October 01, 2016 (GMT -0500)
Chennault International

Weather History for KCWF - November, 2012

Change the Weather History Date:

Thursday, November 15, 2012

  Actual Average Record
Temperature  
Mean Temperature 50 °F -  
Max Temperature 64 °F 70 °F 82 °F (2011)
Min Temperature 37 °F 54 °F 33 °F (2000)
Degree Days  
Heating Degree Days 14    
Moisture  
Dew Point 35 °F    
Average Humidity 63    
Maximum Humidity 87    
Minimum Humidity 28    
Precipitation  
Precipitation 0.00 in - - ()
Sea Level Pressure  
Sea Level Pressure 30.29 in    
Wind  
Wind Speed 3 mph (NNE)    
Max Wind Speed 7 mph    
Max Gust Speed -    
Visibility 10 miles    
Events      
Averages and records for this station are not official NWS values.
T = Trace of Precipitation, MM = Missing Value Source: NWS Daily Summary

Daily Weather History Graph

Daily Weather History Graph

Search for Another Location

Airport or City:

Trip Planner

Search our weather history database for the weather conditions in past years. The results will help you decide how hot, cold, wet, or windy it might be!

Date:

Astronomy

Nov. 15, 2012 Rise Set
Actual Time 6:38 AM CST 5:15 PM CST
Civil Twilight 6:13 AM CST 5:41 PM CST
Nautical Twilight 5:44 AM CST 6:10 PM CST
Astronomical Twilight 5:15 AM CST 6:38 PM CST
Moon 8:29 AM CST (11/15) 7:12 PM CST (11/15)
Length of Visible Light 11h 28m
Length of Day
10h 37m
Waxing Crescent, 5% of the Moon is Illuminated
Nov 15
Waxing Crescent
Nov 20
First Quarter
Nov 28
Full
Dec 6
Last Quarter
Dec 13
New

Hourly Weather History & Observations

Time (CST) Temp. Windchill Dew Point Humidity Pressure Visibility Wind Dir Wind Speed Gust Speed Precip Events Conditions
12:15 AM 43.7 °F - 34.9 °F 71% 30.31 in 10.0 mi Calm Calm - N/A   Clear
12:35 AM 43.3 °F - 34.7 °F 72% 30.31 in 10.0 mi Calm Calm - N/A   Clear
12:55 AM 43.0 °F 41.3 °F 35.1 °F 74% 30.31 in 10.0 mi North 3.5 mph - N/A   Clear
1:15 AM 42.3 °F 40.5 °F 34.7 °F 75% 30.31 in 10.0 mi NNE 3.5 mph - N/A   Clear
1:35 AM 42.8 °F - 34.9 °F 74% 30.30 in 10.0 mi Calm Calm - N/A   Clear
1:55 AM 42.1 °F - 34.7 °F 75% 30.30 in 10.0 mi Calm Calm - N/A   Clear
2:15 AM 41.4 °F - 34.7 °F 77% 30.29 in 10.0 mi Calm Calm - N/A   Clear
2:35 AM 41.0 °F 39.0 °F 34.7 °F 78% 30.28 in 10.0 mi NNE 3.5 mph - N/A   Clear
2:55 AM 40.6 °F - 34.7 °F 79% 30.29 in 10.0 mi Calm Calm - N/A   Clear
3:15 AM 40.1 °F 38.0 °F 34.2 °F 79% 30.28 in 10.0 mi NNE 3.5 mph - N/A   Clear
3:35 AM 39.9 °F 37.8 °F 34.2 °F 80% 30.28 in 10.0 mi North 3.5 mph - N/A   Clear
3:55 AM 39.9 °F 36.7 °F 34.0 °F 79% 30.29 in 10.0 mi North 4.6 mph - N/A   Clear
4:15 AM 39.4 °F 36.1 °F 33.6 °F 80% 30.29 in 10.0 mi North 4.6 mph - N/A   Clear
4:35 AM 38.7 °F 35.2 °F 33.8 °F 83% 30.29 in 10.0 mi North 4.6 mph - N/A   Clear
4:55 AM 37.6 °F 34.0 °F 33.8 °F 86% 30.29 in 10.0 mi North 4.6 mph - N/A   Clear
6:00 AM 37.4 °F 32.1 °F 33.8 °F 87% 30.29 in 10.0 mi North 6.9 mph - N/A   Clear
6:50 AM 37.4 °F - 33.8 °F 87% 30.31 in 10.0 mi Calm Calm - N/A   Clear
7:46 AM 42.8 °F 41.1 °F 35.6 °F 76% 30.33 in 10.0 mi NNE 3.5 mph - N/A   Clear
8:45 AM 46.4 °F 43.5 °F 37.4 °F 71% 30.34 in 10.0 mi NNE 5.8 mph - N/A   Clear
9:45 AM 53.6 °F - 37.4 °F 54% 30.33 in 10.0 mi ENE 5.8 mph - N/A   Clear
10:50 AM 57.2 °F - 33.8 °F 41% 30.33 in 10.0 mi NNE 5.8 mph - N/A   Clear
11:50 AM 59.0 °F - 30.2 °F 34% 30.30 in 10.0 mi NE 6.9 mph - N/A   Clear
12:50 PM 60.8 °F - 30.2 °F 31% 30.26 in 10.0 mi NE 6.9 mph - N/A   Clear
1:50 PM 64.4 °F - 30.2 °F 28% 30.25 in 10.0 mi NE 6.9 mph - N/A   Clear
2:45 PM 64.4 °F - 30.2 °F 28% 30.23 in 10.0 mi ENE 6.9 mph - N/A   Clear
3:50 PM 64.4 °F - 30.2 °F 28% 30.23 in 10.0 mi NNE 5.8 mph - N/A   Clear
4:50 PM 62.6 °F - 32.0 °F 32% 30.23 in 10.0 mi ENE 4.6 mph - N/A   Clear
5:50 PM 55.4 °F - 35.6 °F 47% 30.24 in 10.0 mi North 4.6 mph - N/A   Clear
6:50 PM 48.2 °F - 39.2 °F 71% 30.26 in 10.0 mi Calm Calm - N/A   Clear
7:50 PM 51.8 °F - 39.2 °F 62% 30.28 in - Calm Calm - N/A   Clear
8:50 PM 50.0 °F - 35.6 °F 58% 30.29 in 10.0 mi Calm Calm - N/A   Clear
9:15 PM 50.9 °F - 35.2 °F 55% 30.30 in 10.0 mi NNE 4.6 mph - N/A   Clear
9:35 PM 50.5 °F - 34.9 °F 55% 30.30 in 10.0 mi NNE 5.8 mph - N/A   Clear
9:45 PM 51.8 °F - 35.6 °F 54% 30.30 in 10.0 mi NNE 5.8 mph - N/A   Clear
9:55 PM 50.7 °F - 35.2 °F 55% 30.31 in 10.0 mi NNE 5.8 mph - N/A   Clear
10:15 PM 50.0 °F - 35.8 °F 58% 30.31 in 10.0 mi North 4.6 mph - N/A   Clear
10:35 PM 50.0 °F - 36.5 °F 60% 30.31 in 10.0 mi NNE 6.9 mph - N/A   Clear
10:55 PM 49.6 °F - 36.5 °F 61% 30.30 in 10.0 mi NNE 4.6 mph - N/A   Clear
11:15 PM 49.1 °F - 36.5 °F 62% 30.31 in 10.0 mi North 4.6 mph - N/A   Clear
11:35 PM 48.6 °F - 37.0 °F 64% 30.31 in 10.0 mi North 4.6 mph - N/A   Clear
11:55 PM 48.6 °F - 37.6 °F 66% 30.30 in 10.0 mi NNE 6.9 mph - N/A   Clear